GFSSW_500_spd_132.txt.gz
Wind_Speed
28 30 30 31 32 33 32 32 31 33 36 37 37 35 33 35 34 34 35 37 37 34 35 34 32 31 32 37 45 45 50 56 54 48 45 49 47 53 54 56 53 53 51 56 44
31 33 33 34 35 37 38 37 37 37 36 36 36 39 41 39 40 39 39 38 41 40 38 39 39 38 35 35 35 43 49 45 44 43 40 47 49 52 53 58 61 57 56 51 50
33 34 35 35 35 37 39 40 41 41 42 42 42 41 38 38 43 43 44 44 44 44 42 41 44 44 41 40 38 36 36 41 45 39 40 47 49 55 53 56 61 61 58 55 54
34 35 36 37 39 40 41 43 46 47 47 48 48 48 47 44 41 42 51 48 48 50 50 47 46 46 46 44 44 41 39 38 38 39 43 45 47 54 57 54 58 63 65 59 55
35 37 38 39 40 42 45 48 50 51 52 53 56 57 55 54 45 51 54 52 52 52 53 53 52 52 52 51 49 45 44 41 38 34 40 48 48 51 58 56 59 59 63 62 58
36 37 39 42 44 45 47 50 52 54 58 61 62 62 62 57 57 57 59 57 55 54 56 57 54 55 57 57 54 52 50 48 43 40 39 40 48 51 56 57 59 60 60 59 58
45 43 44 47 51 52 51 53 54 56 59 63 67 69 69 64 70 69 66 64 62 60 58 59 60 58 56 58 59 59 56 53 50 48 44 40 42 47 54 56 55 54 56 59 55
52 51 53 57 60 63 64 66 67 66 65 66 70 74 73 73 75 75 75 74 70 70 65 64 65 65 62 59 59 59 62 56 54 53 50 48 40 45 48 55 53 53 49 53 53
57 58 60 63 65 67 67 69 70 73 74 75 78 80 78 76 80 82 80 78 76 73 71 67 69 68 67 65 64 60 58 58 58 57 54 52 47 45 45 47 50 51 51 46 47
63 64 65 68 70 73 74 75 75 75 77 82 84 85 83 84 80 77 82 84 83 81 78 75 70 72 71 70 65 62 64 62 62 60 57 56 53 44 44 41 43 43 48 48 46
66 69 70 72 74 75 76 78 84 90 86 82 79 83 68 74 74 71 70 74 80 81 81 75 70 73 67 70 69 69 65 66 65 63 60 52 54 48 46 40 39 40 42 45 47
71 72 74 73 74 76 85 91 93 87 77 56 58 59 50 49 46 45 48 57 67 75 72 73 76 68 66 70 71 71 70 68 64 66 63 55 55 54 44 45 44 40 39 39 40
72 74 72 74 80 89 95 91 77 69 62 47 39 29 23 20 24 36 38 45 52 56 67 65 62 61 64 66 71 72 71 71 69 65 62 55 56 54 46 44 44 42 38 37 38
72 73 75 81 88 96 92 76 66 54 37 23 16 9 10 5 2 5 10 25 38 42 45 55 52 57 60 63 66 69 67 68 68 65 61 57 52 54 47 48 45 41 39 40 41
74 74 79 87 94 93 78 65 49 33 15 21 11 14 9 8 12 9 12 12 17 19 22 35 43 45 51 59 63 65 63 66 66 60 55 59 55 51 50 48 47 47 45 42 38
74 76 85 94 96 78 64 50 33 20 11 12 13 10 10 7 6 13 19 18 17 19 20 18 27 41 47 45 56 46 47 60 60 55 45 57 55 50 56 47 45 46 46 43 40
74 82 91 96 82 66 52 38 25 14 12 10 5 9 10 11 15 7 5 16 19 20 22 22 21 22 41 47 49 52 46 43 45 43 62 59 57 53 57 50 46 43 45 45 40
78 87 94 87 69 55 42 27 20 18 4 11 11 12 17 18 10 6 5 4 12 18 16 15 17 17 31 46 48 49 53 54 54 66 65 55 60 53 59 53 49 45 44 41 37
81 90 92 73 59 43 37 31 17 9 6 6 11 13 13 23 12 8 2 6 9 15 15 13 13 21 21 30 40 44 49 45 31 42 36 50 53 62 56 53 50 48 45 42 41
83 91 83 64 47 35 37 25 18 8 11 12 12 15 22 25 15 7 7 9 10 11 14 12 13 21 16 26 35 39 35 43 32 39 38 40 49 47 53 48 46 46 42 40 37
87 87 75 53 35 36 28 20 17 6 11 12 14 19 20 26 13 11 6 11 14 4 16 12 12 15 20 31 34 40 37 47 36 32 38 35 30 42 44 43 43 37 39 35 34
86 81 63 42 34 32 22 21 14 13 14 14 17 21 21 21 18 7 9 11 4 8 5 16 19 14 18 24 27 34 44 43 36 35 34 27 37 47 43 41 36 35 35 35 34
82 71 45 38 32 25 29 21 16 14 13 15 16 21 19 23 18 12 7 2 8 16 7 8 20 17 25 38 40 40 41 42 36 30 30 27 38 42 37 35 36 35 35 34 33
79 62 36 34 33 31 30 23 16 14 13 16 22 21 19 15 21 14 3 4 10 14 12 3 10 19 23 30 37 36 44 41 38 33 30 23 34 42 36 37 39 39 38 36 35
75 54 32 30 34 31 29 25 17 11 16 16 17 21 21 10 13 12 3 4 16 16 13 7 21 18 13 29 36 26 35 39 40 29 24 32 32 39 40 38 39 39 39 38 40
67 50 31 28 29 29 27 27 23 21 17 14 15 16 18 17 13 4 4 4 8 14 17 29 21 13 16 20 38 34 32 35 41 27 30 30 33 34 40 40 41 39 38 36 35
63 44 26 21 20 28 29 28 22 21 22 23 16 14 15 12 7 4 6 5 8 15 11 21 16 15 12 18 29 30 33 31 38 32 26 23 32 38 41 41 42 42 39 36 34

GFSSW_500_spd_138.txt.gz
Wind_Speed
19 20 21 21 21 21 21 22 24 27 32 36 39 41 41 39 39 40 44 48 45 45 43 40 40 40 40 37 37 46 50 54 49 52 51 47 42 33 38 53 49 51 40 32 50
27 27 30 32 33 34 35 35 35 33 34 36 36 37 40 46 47 43 42 45 51 53 51 47 45 43 46 42 41 42 46 50 43 42 45 42 41 39 34 46 55 57 53 41 56
32 34 36 38 40 41 44 45 46 46 47 46 47 45 45 44 43 49 46 49 51 52 57 56 53 52 48 46 46 45 40 35 40 44 41 43 38 32 36 51 52 58 56 53 61
34 38 41 42 45 49 52 53 55 56 58 60 58 57 55 52 50 49 54 54 55 54 54 54 58 57 54 50 46 49 43 41 38 40 44 44 40 36 43 56 50 50 49 49 59
39 43 47 52 56 58 61 63 63 64 64 67 68 68 68 65 55 59 59 58 59 57 57 58 58 58 60 54 51 52 47 47 43 42 40 45 49 47 50 50 48 50 49 48 53
44 49 53 57 60 64 67 68 70 70 72 73 67 68 67 66 65 66 66 65 62 65 61 60 62 61 61 57 58 52 52 50 48 45 44 42 43 52 50 50 52 50 49 52 53
51 55 58 65 66 70 72 73 74 70 66 69 69 69 68 62 69 69 71 66 68 66 70 66 63 65 64 63 58 56 56 56 53 48 47 49 47 44 43 51 53 55 52 50 55
56 60 66 69 71 75 73 72 69 67 66 70 73 75 76 77 78 83 82 76 72 72 69 71 69 68 68 67 63 62 58 59 55 53 51 51 44 43 43 46 51 54 53 50 49
64 66 71 74 74 72 69 68 70 72 77 83 88 90 87 86 86 91 91 90 88 84 81 74 74 71 68 68 67 66 65 63 56 55 53 54 43 47 48 44 42 46 49 49 45
67 69 72 74 69 67 72 77 80 86 89 84 81 68 53 49 49 58 71 77 74 81 84 83 78 77 74 72 74 69 68 64 63 56 56 54 50 49 46 46 43 41 38 38 41
68 72 70 68 65 74 80 84 92 83 64 52 38 33 23 18 17 23 33 41 35 49 66 71 77 84 79 73 64 62 64 62 59 48 51 54 52 50 49 47 45 43 38 33 34
68 68 65 64 73 80 88 94 79 53 25 17 13 11 7 12 16 19 20 23 29 25 38 49 62 70 73 65 66 66 66 62 53 50 50 51 50 52 47 47 47 45 35 35 34
68 64 63 70 76 86 89 72 49 22 11 12 20 18 17 22 22 13 11 27 21 33 30 31 39 54 59 61 63 68 68 65 60 30 39 38 35 41 48 49 49 46 38 35 34
66 62 66 73 81 84 75 53 21 16 6 16 28 23 24 28 13 19 22 17 13 18 16 20 26 34 52 55 58 66 64 62 58 39 34 36 43 38 57 45 42 46 38 38 36
64 64 70 78 83 73 65 25 16 18 16 13 17 22 25 25 19 16 16 6 7 7 23 25 17 22 47 36 54 56 59 63 63 50 39 37 43 45 45 51 44 39 37 39 38
64 66 72 80 70 67 54 25 16 19 20 14 16 23 18 24 15 12 14 6 5 6 4 17 23 18 33 33 33 51 51 39 40 51 51 39 39 46 47 47 39 43 38 38 37
65 68 73 66 68 56 35 18 19 19 14 12 14 27 28 15 10 9 8 7 16 16 14 8 11 30 25 36 37 49 50 48 41 52 59 56 39 49 48 38 42 35 41 40 39
65 68 71 73 54 49 21 30 26 21 21 24 26 34 36 17 16 9 7 7 4 15 9 10 10 15 27 38 31 46 47 55 50 46 59 61 64 58 37 26 32 35 35 41 40
65 68 71 50 48 35 25 27 26 27 25 24 28 35 33 31 22 9 5 7 6 11 14 12 9 8 25 30 43 29 49 45 44 37 47 60 56 42 28 29 31 31 38 38 42
62 65 68 38 38 24 22 23 25 27 25 28 34 34 32 30 16 14 14 7 2 10 11 14 20 8 19 27 32 47 36 47 48 37 38 40 52 46 41 35 42 41 42 44 41
63 66 61 34 31 25 21 22 22 26 31 34 35 33 29 27 26 18 14 10 11 12 17 17 17 13 21 23 17 48 46 48 47 38 39 38 44 44 34 43 51 49 44 39 46
60 61 57 37 27 21 24 26 29 31 34 33 34 33 27 24 21 24 17 14 7 9 6 14 18 16 15 17 20 38 46 49 53 38 39 33 31 39 35 51 52 50 49 44 39
59 60 57 44 20 20 27 28 32 30 28 29 31 31 28 28 21 20 9 6 7 11 2 13 20 16 17 15 20 39 37 39 53 37 43 42 37 44 41 43 37 44 51 47 41
58 57 53 47 24 22 25 32 32 28 28 25 27 27 23 18 20 20 20 16 8 3 5 0 8 15 19 25 12 36 37 46 54 35 46 36 32 49 52 38 40 38 42 45 44
56 56 55 51 24 18 22 32 34 32 26 24 23 22 20 17 19 17 20 20 10 6 4 5 10 13 11 13 16 27 36 53 52 29 33 46 19 40 51 49 44 36 34 46 46
54 52 51 45 38 20 23 27 34 32 27 19 20 19 21 17 18 20 20 21 14 14 17 5 6 5 4 17 14 12 28 56 44 32 26 20 32 35 39 47 44 42 36 45 45
54 52 50 44 38 19 21 27 32 39 34 21 14 15 14 11 14 18 20 22 10 10 5 6 13 11 11 13 14 31 35 37 45 23 18 36 38 29 38 36 32 38 43 41 40

GFSSW_500_spd_141.txt.gz
Wind_Speed
24 25 25 25 26 28 30 32 35 36 38 39 39 39 39 37 36 39 35 40 41 47 48 50 46 42 44 43 41 40 43 51 50 55 50 45 47 50 49 50 40 31 27 38 42
25 28 31 33 36 39 42 44 46 47 48 48 48 48 47 47 44 40 42 42 43 46 50 50 50 51 50 43 49 50 46 35 38 46 45 40 45 45 50 50 48 36 33 44 41
30 34 37 40 42 45 48 52 55 55 59 60 58 57 55 54 53 49 48 51 51 50 50 53 53 54 55 51 49 49 51 36 32 39 45 42 44 44 45 39 52 51 42 50 50
35 40 43 46 48 51 54 57 60 62 65 67 67 65 62 62 60 56 58 59 59 57 56 54 55 58 56 54 50 53 46 43 39 39 41 45 40 46 49 47 46 56 50 59 59
41 44 48 54 55 58 62 67 68 69 69 69 68 68 68 68 60 63 67 64 62 63 61 60 58 59 61 56 50 57 49 47 44 44 41 43 50 46 53 53 55 52 56 57 66
46 52 56 58 61 65 65 67 68 70 71 68 67 68 70 69 70 70 67 67 66 64 64 64 61 57 62 61 58 51 54 51 49 47 44 42 41 51 46 53 58 61 62 59 59
54 58 61 66 69 69 68 66 64 64 65 71 75 77 75 73 74 75 78 70 68 69 65 66 67 64 62 62 61 56 56 56 56 50 47 45 46 42 41 48 54 59 57 50 49
58 62 68 69 70 69 66 63 65 71 75 81 84 88 86 88 85 86 87 81 78 73 70 65 66 69 66 64 64 61 60 59 54 54 52 50 50 43 45 48 52 58 53 47 44
63 66 68 71 70 66 66 69 75 81 89 90 86 74 58 60 64 74 84 87 87 85 80 77 72 67 68 64 66 66 68 64 55 55 55 56 50 46 50 47 46 48 49 49 45
67 70 71 68 65 66 71 75 83 91 80 54 27 18 17 12 16 24 30 40 52 65 81 87 83 80 76 73 71 68 67 67 61 55 57 57 54 49 49 50 45 43 42 40 39
69 69 68 63 66 69 74 80 83 54 32 22 23 18 21 15 16 16 14 11 15 29 34 57 67 80 81 74 66 62 63 62 58 55 53 55 55 53 50 52 47 45 41 37 30
68 69 64 64 69 75 80 79 43 26 16 14 25 18 21 17 23 23 18 16 22 23 30 29 51 63 71 73 74 68 62 64 56 53 55 52 50 47 47 48 46 43 43 37 29
66 66 63 66 71 78 75 66 21 19 15 17 19 21 30 28 28 20 18 20 18 19 26 26 19 34 50 59 62 67 66 62 59 51 43 50 48 47 47 47 43 44 40 38 33
64 64 62 68 71 72 63 44 19 20 20 19 27 32 37 31 31 18 15 18 16 19 19 29 23 32 30 52 59 65 66 62 60 53 54 43 48 44 46 46 44 42 40 39 33
63 62 64 68 71 56 48 34 22 19 18 21 29 39 34 27 18 16 14 15 15 19 10 21 21 25 38 33 40 56 58 62 59 55 50 46 37 37 40 47 45 41 41 37 36
61 60 63 69 64 48 37 33 29 30 27 28 27 34 34 25 22 22 19 21 13 10 6 10 15 24 34 35 33 37 46 60 60 54 57 48 44 35 36 47 47 43 39 36 36
58 59 61 61 63 36 27 23 33 32 30 32 35 35 33 30 22 18 19 19 16 15 11 13 10 26 19 41 44 40 46 49 45 59 59 50 42 43 33 40 42 39 43 36 32
57 57 60 58 60 29 23 24 30 29 31 36 38 35 34 34 22 20 15 17 6 7 8 5 4 20 15 16 43 44 51 52 50 46 59 54 47 45 37 31 33 33 32 34 37
55 58 57 59 48 20 23 24 33 37 38 37 33 30 24 24 26 21 15 21 11 4 9 8 5 5 18 26 38 40 53 53 45 37 47 60 49 47 35 25 28 35 37 37 32
54 56 55 57 46 25 25 31 35 37 31 34 36 34 29 25 19 20 16 13 13 10 8 10 7 11 16 28 41 32 36 56 46 38 46 57 57 56 37 27 31 31 31 36 34
55 52 54 54 51 26 24 30 32 28 31 36 36 31 27 23 24 27 19 15 10 11 12 11 14 7 2 22 37 25 48 58 48 44 34 43 60 55 34 34 32 32 34 35 38
54 52 57 52 47 29 22 27 33 30 29 28 30 27 26 26 24 23 17 12 9 7 11 10 10 9 10 23 27 35 40 47 57 49 37 37 47 60 46 40 40 36 36 35 33
50 57 55 49 46 39 20 23 30 34 33 27 30 23 21 27 22 21 14 9 7 6 8 7 9 8 9 14 33 32 46 51 50 50 45 37 37 42 53 45 44 41 39 37 34
55 53 49 49 48 43 21 20 27 33 36 24 24 20 15 20 23 20 22 19 11 10 9 8 5 4 8 14 24 26 47 46 55 49 51 44 40 41 50 49 49 45 43 42 38
54 52 52 48 45 41 21 20 24 30 33 21 18 20 16 16 19 18 22 27 20 20 23 9 3 6 11 17 21 24 40 50 49 49 45 38 38 44 47 48 48 50 47 46 43
51 47 49 47 45 40 26 20 23 25 32 22 15 17 15 17 21 15 25 18 17 18 15 19 7 4 5 10 18 18 39 42 63 48 40 32 36 43 50 48 51 46 48 46 44
48 47 49 47 41 38 29 19 23 25 29 25 16 15 12 12 18 20 20 11 12 16 19 9 10 13 15 11 16 22 29 45 52 43 44 39 43 46 55 48 45 46 39 36 35

GFSSW_500_spd_144.txt.gz
Wind_Speed
21 23 24 28 31 33 37 39 42 44 47 49 50 50 49 47 44 44 45 43 43 47 47 47 46 49 49 48 47 47 54 47 37 38 44 41 51 53 52 49 45 37 44 43 45
29 30 31 34 37 40 43 47 49 51 53 55 57 59 61 59 55 51 50 51 52 49 49 50 49 51 55 52 54 53 57 47 33 32 35 39 46 51 59 57 51 50 49 44 43
31 34 36 39 43 47 51 54 57 59 62 63 63 63 65 65 60 56 55 54 55 57 57 54 56 57 56 53 56 56 57 36 41 39 35 40 45 47 56 60 56 57 49 51 50
34 38 41 45 49 54 58 61 62 65 66 64 64 66 65 63 60 61 62 61 60 60 60 63 61 60 58 58 51 55 52 43 40 43 41 38 41 43 51 55 59 62 55 55 52
39 42 46 51 53 56 59 59 59 61 63 65 65 64 65 65 58 61 64 62 62 64 66 67 68 66 63 60 56 59 49 50 47 43 45 42 44 47 47 50 55 62 65 56 46
44 48 54 59 61 62 64 63 64 65 65 67 69 71 72 73 72 71 72 72 69 65 64 67 68 65 66 63 63 61 58 54 54 48 45 46 43 44 43 47 56 55 64 62 59
49 53 59 63 65 64 64 63 65 67 71 73 77 79 80 87 84 84 83 80 79 74 67 64 68 70 68 66 63 63 63 57 55 52 49 50 50 45 40 54 56 60 58 62 53
53 58 62 62 63 64 65 64 69 74 77 86 75 62 50 44 45 55 69 77 81 81 76 70 67 69 68 68 65 66 68 65 55 54 54 54 53 45 42 58 55 59 64 66 68
57 60 63 63 64 63 64 68 72 79 77 48 26 26 25 28 22 20 22 29 39 61 83 77 72 70 70 70 70 70 67 65 55 56 55 60 53 49 47 54 61 57 56 60 65
60 63 65 63 64 63 66 69 74 70 33 24 24 21 26 26 19 19 23 15 14 23 38 65 68 74 75 73 73 66 68 66 63 58 58 61 58 52 51 50 53 62 56 56 50
64 66 66 63 63 62 65 68 68 46 21 23 29 25 31 23 20 23 18 6 12 14 11 31 52 65 73 74 68 65 65 66 63 55 58 58 57 54 53 54 55 50 46 43 37
65 66 63 62 62 64 66 62 49 30 21 27 27 29 38 35 27 25 18 14 18 19 21 19 30 50 52 68 73 72 68 66 64 61 54 55 56 53 55 55 53 49 46 39 33
63 65 60 61 61 62 54 41 35 27 24 25 32 35 41 36 26 17 15 14 24 26 22 26 23 38 41 57 70 74 73 64 61 58 52 53 58 55 52 54 53 49 42 40 35
64 62 57 59 58 58 45 28 32 34 31 33 37 39 35 34 25 22 22 21 28 15 24 24 22 34 32 47 60 70 74 68 60 58 54 51 59 57 52 53 53 50 44 42 39
64 61 58 53 57 52 39 27 28 33 34 36 37 38 33 33 31 22 18 20 21 18 17 10 23 20 24 29 43 66 66 69 60 60 56 58 59 60 55 56 54 49 45 42 41
64 62 57 54 55 50 37 26 27 31 35 40 35 33 26 28 26 24 20 19 18 19 9 5 18 17 15 27 25 43 60 61 59 62 62 57 59 59 58 53 49 46 45 42 41
63 62 53 52 53 49 40 30 31 36 38 35 32 29 27 25 22 22 17 22 19 17 9 5 14 17 20 34 27 30 49 58 57 64 64 56 60 57 54 51 49 46 44 43 38
62 59 52 56 48 46 41 30 33 35 30 33 32 26 29 26 19 21 17 18 18 19 3 12 9 8 8 21 23 31 40 50 56 64 58 58 59 55 44 46 48 48 44 43 40
61 56 55 51 46 46 44 26 32 36 35 35 28 25 22 21 22 17 13 14 15 9 7 10 11 7 14 22 34 34 41 51 50 57 58 66 53 47 46 44 47 49 48 45 39
59 58 54 48 47 46 47 26 27 34 31 34 35 31 26 19 17 17 11 11 12 9 5 7 5 12 3 18 24 38 40 45 45 44 64 59 51 43 47 49 50 45 42 42 44
60 58 53 49 46 46 42 25 23 30 36 38 31 26 24 24 22 22 14 9 10 10 11 8 7 4 2 14 18 40 44 45 38 43 54 60 51 49 54 43 40 41 41 41 39
60 58 52 48 47 43 41 33 22 27 32 31 26 20 22 26 22 23 19 13 9 10 10 9 7 8 10 13 23 37 42 47 41 41 49 60 56 49 49 48 40 38 37 36 37
58 55 52 49 43 40 40 30 20 25 30 27 24 21 22 27 30 25 25 19 11 8 9 7 4 4 5 14 17 29 23 48 48 44 47 58 64 53 46 42 40 40 37 33 30
58 54 50 48 44 42 38 31 17 22 27 26 24 23 16 17 24 27 28 20 15 20 15 9 6 6 14 13 16 26 29 42 55 50 49 52 65 57 52 46 43 41 36 35 33
58 54 51 47 40 42 40 35 17 16 22 23 18 23 15 13 15 19 21 18 20 19 17 11 4 3 9 11 12 19 31 41 52 51 50 43 55 63 50 46 44 41 39 37 33
57 52 49 46 38 40 40 34 22 15 21 21 16 20 16 18 23 17 16 17 17 21 13 11 6 1 9 14 13 16 29 37 46 59 47 38 41 67 60 47 46 42 39 37 34
55 50 47 46 39 40 38 34 23 14 23 24 13 14 13 14 19 16 22 16 19 23 10 1 6 5 2 5 15 18 28 41 43 58 36 37 42 45 58 54 51 47 44 38 35

GFSSW_500_spd_147.txt.gz
Wind_Speed
24 24 25 27 31 35 38 42 45 48 52 55 57 59 60 58 56 54 53 54 56 55 51 52 51 51 54 56 53 54 58 54 47 41 31 32 49 57 58 53 50 55 56 52 54
26 27 30 33 37 40 43 46 49 52 56 59 62 64 66 64 61 58 61 58 60 61 61 58 56 56 57 57 60 60 64 58 49 44 36 28 45 55 63 60 54 54 58 55 55
32 35 37 39 42 45 48 51 54 58 59 61 61 62 64 64 60 63 65 64 61 62 64 62 64 62 61 60 62 61 65 55 48 51 43 34 41 55 62 64 59 57 61 59 52
36 39 40 42 47 50 53 57 60 62 61 60 60 62 64 66 67 70 67 66 63 62 64 67 68 70 67 64 60 63 59 55 52 51 47 44 44 52 58 60 64 66 64 59 53
41 44 47 49 53 56 59 61 63 60 60 62 66 67 69 69 71 73 72 70 68 62 62 69 72 74 73 70 65 66 60 56 56 56 48 49 46 45 51 57 61 67 67 67 62
47 50 51 54 58 59 60 61 62 61 63 66 67 69 72 71 69 73 76 78 77 74 68 63 68 74 75 72 71 67 64 63 58 56 53 52 51 48 46 55 55 61 66 69 68
51 54 56 58 59 59 60 60 61 62 64 66 67 53 43 36 31 32 38 47 65 73 79 73 69 67 73 72 69 69 72 66 60 54 56 54 56 59 47 54 54 57 60 66 70
52 57 60 60 61 59 61 60 62 63 65 60 35 31 30 36 36 29 27 26 26 34 63 73 75 72 69 70 73 71 74 70 61 57 57 60 58 52 45 50 53 55 57 60 66
56 60 63 62 60 60 60 61 61 61 56 35 20 26 31 41 34 30 29 30 26 20 23 48 69 74 74 72 72 74 74 71 62 61 57 61 57 51 48 50 56 58 58 59 61
58 63 63 60 59 60 58 58 58 52 35 22 19 28 34 37 39 32 30 28 17 11 10 13 43 67 73 76 74 67 73 72 70 60 61 62 59 55 51 54 59 63 61 60 61
61 63 62 59 61 57 54 53 45 36 20 20 25 33 34 37 38 32 25 19 12 17 23 17 18 37 66 73 73 70 69 72 71 65 62 62 63 60 58 57 62 64 63 62 61
64 63 60 59 61 54 55 50 40 30 29 32 33 41 41 37 34 24 20 18 16 16 24 27 20 14 36 63 70 75 72 71 68 67 65 64 66 63 60 58 60 65 63 64 64
65 63 59 61 60 56 47 46 36 29 28 37 37 44 40 35 30 23 20 18 16 20 24 16 16 23 27 42 66 73 75 69 66 64 65 64 67 65 65 61 58 59 55 63 64
63 62 58 61 57 52 46 46 33 30 34 38 39 38 36 35 26 24 11 15 18 18 19 21 28 33 34 29 53 72 73 72 67 64 63 62 65 67 63 63 62 58 53 51 57
62 58 58 61 58 47 46 45 30 31 40 37 32 34 36 33 29 24 14 16 20 14 19 18 24 15 24 24 32 60 67 73 69 67 66 64 66 68 64 62 63 58 52 50 51
60 57 59 60 54 45 46 45 29 28 33 33 31 33 33 29 29 24 24 19 17 15 18 12 10 3 4 16 25 39 58 68 70 70 70 63 64 69 66 60 60 57 55 52 51
58 58 61 60 51 45 43 42 28 25 29 31 34 31 31 27 24 24 22 19 15 12 8 15 9 11 14 8 15 26 45 49 67 70 69 59 63 64 60 57 56 57 55 52 51
57 58 60 56 49 45 42 41 29 25 24 31 36 27 30 28 23 23 23 17 15 10 8 11 10 15 8 11 17 21 30 41 60 65 66 59 63 63 55 53 57 57 55 56 55
58 58 60 54 49 44 42 39 37 26 30 34 31 20 20 24 32 25 21 18 17 11 9 7 8 6 10 9 21 27 25 28 42 49 64 62 56 56 58 57 60 57 55 55 52
57 58 60 52 49 45 41 39 34 22 24 31 36 26 25 27 28 26 24 16 14 12 9 9 7 5 10 12 17 21 27 34 36 48 54 56 57 57 55 56 56 56 53 51 50
57 59 57 53 47 44 41 38 32 23 24 30 34 26 25 27 25 28 25 20 13 13 14 10 8 4 5 8 17 25 28 33 31 48 42 55 61 52 51 51 52 51 53 53 52
57 61 59 52 46 43 40 38 34 24 22 27 33 30 23 23 22 24 24 21 16 10 9 9 9 7 10 11 14 17 29 30 37 33 45 52 61 55 49 47 47 50 51 54 52
57 61 59 52 47 42 40 40 34 28 18 21 27 29 25 23 26 23 20 14 10 11 9 8 7 8 5 8 12 17 28 26 40 34 31 57 61 52 48 46 48 46 52 51 52
60 61 58 52 47 44 40 37 31 23 16 21 24 27 18 14 22 23 18 16 19 11 11 13 9 7 10 10 13 15 19 31 45 43 36 58 59 55 48 49 50 53 55 52 50
61 59 57 51 46 46 41 38 34 14 14 19 18 24 12 11 15 19 18 18 16 19 13 10 9 9 13 14 13 16 25 32 38 42 40 54 57 56 51 50 50 53 51 51 49
60 58 53 51 46 44 39 35 29 14 16 16 13 18 11 15 20 15 17 20 23 22 14 8 7 8 8 9 10 14 25 27 40 39 42 52 55 58 51 50 52 48 46 43 39
60 56 52 52 46 42 36 34 30 9 18 17 12 13 12 10 17 18 17 19 17 20 16 8 6 5 6 5 12 7 21 25 40 44 36 51 56 69 56 56 53 49 42 39 38